Theta_e
300 300 300 301 301 302 303 303 303 304 305 306 305 304 304 306 308 311 310 312 312 312 312 313 314 314 314 313 314 311 311 310
300 298 301 303 304 304 305 305 305 305 306 305 303 304 305 306 308 310 312 312 311 309 309 311 314 314 314 315 312 310 311 313
301 301 302 303 304 305 306 306 306 305 304 304 304 305 306 307 307 309 311 312 313 312 310 309 312 313 314 312 308 310 307 309
303 304 304 304 305 305 305 304 304 303 303 302 304 306 306 306 306 307 309 313 312 312 312 313 311 315 310 310 310 310 311 310
303 302 304 303 303 303 301 302 304 302 301 303 303 304 304 304 306 306 306 308 309 310 312 312 312 309 307 307 309 307 307 307
302 302 303 302 302 301 301 302 301 300 299 300 302 302 303 304 304 305 307 308 308 309 311 311 309 311 308 304 307 307 307 306
302 303 302 301 301 301 300 300 299 300 300 300 301 302 303 304 302 302 304 305 307 309 310 310 307 308 306 302 304 308 306 305
302 302 301 300 300 300 299 298 297 297 300 300 301 302 301 301 300 302 303 304 308 312 312 310 310 312 305 301 301 304 303 304
302 300 300 299 300 298 297 296 296 299 300 301 301 304 302 300 299 302 304 305 308 307 310 311 309 311 306 299 300 302 303 309
302 299 300 300 299 296 295 295 298 299 300 300 300 299 300 300 297 298 304 306 306 305 308 309 311 312 306 299 298 300 304 308
302 299 299 299 298 296 295 296 298 300 298 298 298 298 297 298 297 298 299 302 304 305 306 305 307 312 308 303 299 298 302 307
301 299 298 297 297 298 297 298 299 299 297 297 297 295 295 296 301 302 298 303 302 301 301 304 306 311 310 303 300 300 302 304
300 298 298 297 299 299 298 299 301 297 297 297 297 298 293 295 299 301 302 300 301 299 299 301 303 306 305 299 298 302 302 302
300 299 298 298 299 298 300 301 299 299 296 295 295 298 294 298 296 300 299 298 297 296 293 294 301 298 296 297 296 295 295 296
301 301 300 299 299 297 299 299 299 299 298 296 294 295 297 297 296 298 298 302 301 299 296 292 294 294 294 295 295 294 294 297
303 302 299 299 298 298 300 300 298 298 300 296 293 295 297 297 297 297 298 298 300 300 299 292 294 294 294 295 294 298 303 300
303 300 300 299 300 300 301 299 298 298 296 295 294 295 296 294 292 292 294 296 298 297 298 298 299 295 294 294 293 301 302 303
301 298 300 300 299 301 301 299 298 297 296 297 295 296 294 295 291 292 292 293 293 294 294 295 295 295 299 302 303 304 303 305
302 301 301 299 300 302 301 300 298 297 297 296 294 293 294 296 294 292 293 292 292 292 293 295 286 294 299 302 302 305 306 304
302 302 301 301 302 302 301 300 299 298 297 297 296 293 293 295 296 293 293 293 293 293 294 294 288 295 296 300 302 303 304 304
Wind_Speed
3 2 2 3 5 2 3 1 2 2 2 3 5 5 6 7 7 9 8 9 7 5 6 5 4 3 6 6 6 5 6 2
2 5 6 6 5 5 4 4 3 5 6 5 5 6 5 6 7 7 7 5 4 4 5 5 5 2 4 6 5 6 5 2
7 6 6 4 3 3 3 4 5 4 6 7 7 6 6 6 7 7 7 5 4 5 4 6 6 4 4 6 5 6 4 2
6 6 6 5 5 5 5 5 5 5 6 7 7 6 6 7 7 7 6 4 4 5 6 6 6 3 8 7 7 6 5 5
5 6 6 5 5 3 4 3 4 6 6 6 6 7 7 7 7 7 6 4 4 3 5 3 4 5 9 8 10 6 6 3
5 5 5 3 1 3 4 5 6 5 6 6 7 6 7 7 7 7 7 4 4 3 4 4 5 4 6 9 11 6 5 5
4 5 4 2 5 4 4 6 6 6 6 6 8 7 8 7 7 7 7 5 5 3 4 4 5 4 7 8 8 5 4 4
6 6 3 6 4 4 4 4 5 6 7 7 7 6 7 7 6 8 6 5 4 3 4 2 6 5 8 11 7 3 4 3
6 6 5 4 2 4 3 5 6 6 6 6 7 9 6 6 6 5 5 4 3 4 5 4 3 3 5 7 10 4 4 3
6 5 3 2 2 2 2 4 6 5 6 6 7 7 7 6 7 6 6 5 4 4 4 3 3 1 2 7 8 5 5 3
4 5 3 3 4 3 4 5 5 5 6 6 6 7 7 7 6 6 4 5 4 4 3 4 5 2 2 2 7 11 5 2
4 4 2 5 7 6 6 5 4 4 6 6 6 6 7 7 6 4 4 3 4 3 3 3 5 2 2 2 3 5 6 3
5 5 6 6 3 6 7 5 2 2 4 5 6 4 5 5 5 4 4 1 2 2 2 3 4 4 3 3 2 4 4 3
6 7 6 5 5 7 7 5 1 1 3 4 5 3 4 4 4 5 2 3 6 3 4 1 2 3 8 5 4 7 6 7
6 8 6 7 7 7 7 3 3 0 2 4 3 4 4 4 3 4 6 7 6 7 7 7 4 7 8 2 4 4 4 4
7 4 7 7 7 7 7 5 3 2 3 5 2 3 4 4 3 3 2 3 5 7 3 4 7 8 10 3 4 4 1 1
4 5 7 7 6 7 4 4 5 4 3 3 3 4 3 2 2 3 3 3 4 4 3 4 6 9 5 5 4 2 0 1
3 6 8 7 6 5 5 5 5 3 3 7 3 3 3 2 1 1 3 3 3 4 4 3 4 5 4 4 2 1 2 3
6 7 8 5 7 6 6 6 6 4 3 4 7 3 4 4 2 3 2 2 4 4 3 3 1 2 3 3 3 4 3 3
6 7 8 8 7 7 7 6 7 5 4 4 4 4 4 4 3 4 4 3 4 4 4 3 3 0 2 3 2 2 3 2
Wind_Direction
176 225 352 186 172 183 127 35 95 206 264 306 318 290 297 295 286 278 282 283 267 250 236 219 220 257 273 261 220 206 229 253
175 51 66 63 61 61 74 46 0 319 317 340 314 312 301 302 290 302 293 281 276 250 258 243 238 280 270 263 230 191 219 208
90 81 79 102 62 42 54 37 15 350 353 352 324 306 311 314 318 313 308 308 245 250 255 245 227 229 247 251 197 176 189 207
94 83 92 67 65 58 40 14 2 11 357 332 324 324 318 314 316 317 327 339 322 286 262 240 224 228 236 251 194 177 184 217
92 79 95 93 69 54 15 345 352 13 349 332 348 339 316 314 326 324 314 300 303 307 325 303 247 239 235 233 177 174 161 172
91 112 116 105 100 31 19 18 11 355 339 332 330 325 319 323 326 318 314 288 311 321 307 316 269 253 229 222 165 163 156 182
101 127 123 87 41 26 45 14 353 349 339 333 327 319 317 328 327 317 309 282 284 292 284 318 294 260 212 203 156 154 171 208
118 121 120 73 51 47 47 345 353 348 329 318 311 313 324 315 322 311 303 300 276 281 319 268 309 269 207 207 165 149 166 186
120 91 96 116 109 65 11 347 341 309 318 320 326 329 316 332 320 304 323 322 339 338 24 322 307 171 209 195 159 163 179 171
118 118 154 168 99 90 325 320 288 317 329 329 328 328 330 330 327 323 324 332 336 352 355 347 339 78 107 167 181 167 199 163
138 141 147 195 204 217 271 267 293 311 326 326 326 324 323 325 318 333 326 330 7 3 8 352 337 257 226 221 231 165 163 152
167 171 201 248 225 244 252 286 322 332 325 325 317 329 327 328 326 333 320 330 9 356 354 355 338 74 92 54 161 147 159 190
197 203 228 261 266 250 263 267 258 317 327 323 312 303 324 318 313 332 327 16 333 329 334 338 337 360 43 349 350 159 167 187
217 239 250 254 248 255 254 249 338 324 330 327 312 309 316 309 340 335 359 345 312 316 285 249 331 279 9 313 48 75 110 155
225 237 237 240 246 254 256 257 247 222 262 289 324 332 308 329 339 20 7 333 280 295 288 304 306 318 315 36 119 126 192 106
257 238 222 241 253 260 260 227 252 264 296 286 313 295 303 310 341 11 40 357 351 332 328 292 332 325 324 359 92 98 135 76
297 208 237 253 260 268 244 204 228 249 285 275 287 295 306 280 341 342 354 2 339 337 338 338 330 351 359 81 80 101 200 275
207 227 242 251 262 249 195 207 215 257 271 296 280 280 287 196 276 326 350 342 338 335 340 323 331 359 359 354 359 245 204 237
257 248 247 253 247 200 190 204 204 238 247 261 263 285 256 248 231 260 232 260 291 304 285 259 226 58 346 6 360 357 34 45
285 267 258 254 214 205 213 209 212 226 238 251 260 237 238 246 247 243 262 266 258 265 285 297 306 218 309 321 354 350 354 9